Location: Newark
(50.4348°N, 30.5552°E)
Time: 10:45:36
(UTC+00:00)

Tiros 1 despin weight - Pass Details

Date: 28 January 2020
Orbit: 594 x 642 km, 48.2° (Epoch: 25 February)

Event Time Altitude Azimuth Distance (km) Brightness Sun altitude
Rises 12:12:44 0° 276° (W) 2,888 ? 16.2°
Reaches altitude 10° 12:15:04 10° 272° (W) 1,990 ? 16.0°
Maximum altitude 12:19:31 52° 196° (SSW) 777 ? 15.7°
Drops below altitude 10° 12:24:02 10° 120° (ESE) 2,013 ? 15.3°
Sets 12:26:24 0° 116° (ESE) 2,925 ? 15.1°
